Location: Amsterdam
(30.7274°N, 84.4357°W)
Time: 07:58:19
(UTC+00:00)

SR - All Passes

Search period start: 17 February 2026 00:00
Search period end: 27 February 2026 00:00
Orbit: 574 x 847 km, 66.7° (Epoch: 15 February)

Date Brightness Start Highest point End Pass type
(mag) Time Alt. Az. Time Alt. Az. Time Alt. Az.
17 Feb - 08:40:43 10° SE 08:43:09 15° ESE 08:45:37 10° ENE visible
17 Feb - 10:20:41 10° WSW 10:24:26 31° WNW 10:28:16 10° N visible
17 Feb - 19:03:11 10° N 19:08:08 43° ENE 19:13:22 10° SE daylight
17 Feb - 20:45:45 10° WNW 20:49:32 20° WSW 20:53:26 10° SSW daylight
18 Feb - 09:25:17 10° SSW 09:29:27 85° ESE 09:33:44 10° NNE visible
18 Feb - 18:09:20 10° NNE 18:12:58 19° ENE 18:16:44 10° E daylight
18 Feb - 19:49:44 10° NW 19:54:47 49° WSW 20:00:09 10° S daylight
19 Feb - 08:31:11 10° SSE 08:34:42 27° ESE 08:38:17 10° NE night (unlit)
19 Feb - 10:13:16 10° WSW 10:16:17 19° WNW 10:19:23 10° N visible
19 Feb - 18:54:41 10° NNW 18:59:54 69° ENE 19:05:27 10° SSE daylight
19 Feb - 20:39:11 10° W 20:41:06 12° WSW 20:43:04 10° SW daylight
20 Feb - 09:17:05 10° SW 09:21:10 52° WNW 09:25:21 10° NNE visible
20 Feb - 18:00:21 10° N 18:04:51 29° ENE 18:09:36 10° ESE daylight
20 Feb - 19:41:51 10° NW 19:46:27 30° WSW 19:51:16 10° SSW daylight
21 Feb - 08:22:16 10° S 08:26:17 48° ESE 08:30:25 10° NE night (unlit)
21 Feb - 10:06:42 10° WNW 10:08:13 12° NW 10:09:45 10° NNW visible
21 Feb - 17:07:17 10° NNE 17:09:33 13° NE 17:11:54 10° E daylight
21 Feb - 18:46:22 10° NNW 18:51:38 76° WSW 18:57:14 10° SSE daylight
22 Feb - 07:29:03 10° SE 07:31:39 16° ESE 07:34:16 10° ENE night (unlit)
22 Feb - 09:09:14 10° WSW 09:12:56 30° WNW 09:16:45 10° N night (unlit)
22 Feb - 17:51:39 10° N 17:56:41 45° ENE 18:01:59 10° SE daylight
22 Feb - 19:34:21 10° WNW 19:38:04 19° WSW 19:41:54 10° SSW daylight
23 Feb - 08:13:45 10° SSW 08:17:56 90° SE 08:22:15 10° NNE night (unlit)
23 Feb - 16:57:43 10° N 17:01:31 20° ENE 17:05:28 10° ESE daylight
23 Feb - 18:38:16 10° NW 18:43:20 47° WSW 18:48:41 10° S daylight
24 Feb - 07:19:35 10° SSE 07:23:11 28° ESE 07:26:50 10° NE night (unlit)
24 Feb - 09:01:50 10° W 09:04:47 18° NW 09:07:49 10° N night (unlit)
24 Feb - 17:43:10 10° NNW 17:48:27 72° ENE 17:54:02 10° SSE daylight
24 Feb - 19:27:57 10° W 19:29:37 11° WSW 19:31:19 10° WSW daylight
25 Feb - 08:05:35 10° SW 08:09:38 50° WNW 08:13:51 10° NNE night (unlit)
25 Feb - 16:48:47 10° N 16:53:24 30° ENE 16:58:14 10° ESE daylight
25 Feb - 18:30:23 10° NW 18:34:58 29° WSW 18:39:46 10° SSW daylight
26 Feb - 07:10:42 10° S 07:14:45 51° ESE 07:18:56 10° NE night (unlit)
26 Feb - 08:55:24 10° WNW 08:56:43 11° NW 08:58:03 10° NW night (unlit)
26 Feb - 15:55:33 10° NNE 15:58:06 13° NE 16:00:43 10° E daylight
26 Feb - 17:34:52 10° NNW 17:40:10 73° WSW 17:45:46 10° SSE daylight
